Weather History for Kelso-Longview, WA

Change the Weather History Date:

Sunday, November 24, 2013

  Actual Average Record
Temperature  
Mean Temperature 37 °F -  
Max Temperature 50 °F 47 °F 55 °F (2002)
Min Temperature 24 °F 37 °F 12 °F (2010)
Degree Days  
Heating Degree Days 28    
Moisture  
Dew Point 25 °F    
Average Humidity 71    
Maximum Humidity 93    
Minimum Humidity 40    
Precipitation  
Precipitation 0.00 in - - ()
Sea Level Pressure  
Sea Level Pressure 30.23 in    
Wind  
Wind Speed 2 mph (SSE)    
Max Wind Speed 12 mph    
Max Gust Speed -    
Visibility 10 miles    
Events      
Averages and records for this station are not official NWS values.
T = Trace of Precipitation, MM = Missing Value Source: NWS Daily Summary

Daily Weather History Graph

Daily Weather History Graph

Search for Another Location

Airport:

Trip Planner

Search our weather history database for the weather conditions in past years. The results will help you decide how hot, cold, wet, or windy it might be!

Date:

Astronomy

Nov. 24, 2013 Rise Set
Actual Time 7:25 AM PST 4:31 PM PST
Civil Twilight 6:51 AM PST 5:04 PM PST
Nautical Twilight 6:14 AM PST 5:41 PM PST
Astronomical Twilight 5:38 AM PST 6:17 PM PST
Moon 11:13 PM PST 12:05 PM PST
Length of Visible Light 10h 12m
Length of Day
9h 06m
Waning Gibbous, 59% of the Moon is Illuminated
Nov 24
Waning Gibbous
Nov 25
Last Quarter
Dec 2
New
Dec 9
First Quarter
Dec 17
Full

Hourly Weather History & Observations

Time (PST) Temp. Windchill Dew Point Humidity Pressure Visibility Wind Dir Wind Speed Gust Speed Precip Events Conditions
12:15 AM 26.6 °F - 24.8 °F 93% 30.21 in 10.0 mi Calm Calm - N/A   Clear
12:35 AM 28.4 °F - 24.8 °F 86% 30.21 in 10.0 mi Calm Calm - N/A   Clear
12:55 AM 26.6 °F - 23.0 °F 86% 30.21 in 10.0 mi Calm Calm - N/A   Clear
1:15 AM 28.4 °F - 24.8 °F 86% 30.21 in 10.0 mi Calm Calm - N/A   Clear
1:35 AM 26.6 °F - 23.0 °F 86% 30.21 in 10.0 mi Calm Calm - N/A   Clear
1:55 AM 28.4 °F - 24.8 °F 86% 30.21 in 10.0 mi Calm Calm - N/A   Clear
2:15 AM 26.6 °F - 24.8 °F 93% 30.22 in 10.0 mi Calm Calm - N/A   Clear
2:35 AM 26.6 °F - 24.8 °F 93% 30.21 in 10.0 mi Calm Calm - N/A   Clear
2:55 AM 26.6 °F - 23.0 °F 86% 30.21 in 10.0 mi Calm Calm - N/A   Clear
3:15 AM 26.6 °F 22.6 °F 23.0 °F 86% 30.21 in 10.0 mi NNW 3.5 mph - N/A   Clear
3:35 AM 26.6 °F - 23.0 °F 86% 30.21 in 10.0 mi Calm Calm - N/A   Clear
3:55 AM 26.6 °F - 23.0 °F 86% 30.20 in 10.0 mi Calm Calm - N/A   Clear
4:15 AM 26.6 °F - 24.8 °F 93% 30.20 in 10.0 mi Calm Calm - N/A   Clear
4:35 AM 26.6 °F - 21.2 °F 80% 30.20 in 10.0 mi Calm Calm - N/A   Clear
4:55 AM 26.6 °F - 23.0 °F 86% 30.20 in 10.0 mi Calm Calm - N/A   Clear
5:15 AM 26.6 °F 22.6 °F 24.8 °F 93% 30.20 in 10.0 mi NNW 3.5 mph - N/A   Clear
5:35 AM 24.8 °F - 21.2 °F 86% 30.21 in 10.0 mi Calm Calm - N/A   Clear
5:55 AM 26.6 °F - 21.2 °F 80% 30.21 in 10.0 mi Calm Calm - N/A   Clear
6:15 AM 26.6 °F - 21.2 °F 80% 30.21 in - Calm Calm - N/A   Clear
6:35 AM 26.6 °F - 23.0 °F 86% 30.22 in - Calm Calm - N/A   Unknown
6:55 AM 26.6 °F - 23.0 °F 86% 30.22 in - Calm Calm - N/A   Unknown
7:15 AM 24.8 °F - 21.2 °F 86% 30.22 in - Calm Calm - N/A   Unknown
7:35 AM 24.8 °F - 21.2 °F 86% 30.22 in - Calm Calm - N/A   Unknown
7:55 AM 24.8 °F - 19.4 °F 80% 30.22 in - Calm Calm - N/A   Clear
8:15 AM 26.6 °F - 21.2 °F 80% 30.22 in - Calm Calm - N/A   Clear
8:35 AM 28.4 °F - 24.8 °F 86% 30.23 in - Calm Calm - N/A   Unknown
8:55 AM 28.4 °F - 26.6 °F 93% 30.24 in - Calm Calm - N/A   Unknown
9:15 AM 30.2 °F - 26.6 °F 86% 30.24 in - Calm Calm - N/A   Unknown
9:35 AM 33.8 °F - 28.4 °F 81% 30.24 in 10.0 mi Calm Calm - N/A   Clear
9:55 AM 35.6 °F - 28.4 °F 75% 30.24 in 10.0 mi Calm Calm - N/A   Clear
10:15 AM 37.4 °F - 28.4 °F 70% 30.25 in 10.0 mi Calm Calm - N/A   Clear
10:35 AM 39.2 °F 35.9 °F 26.6 °F 61% 30.25 in 10.0 mi SSE 4.6 mph - N/A   Clear
10:55 AM 42.8 °F 39.3 °F 26.6 °F 53% 30.25 in 10.0 mi SSE 5.8 mph - N/A   Clear
11:15 AM 44.6 °F 40.7 °F 24.8 °F 46% 30.24 in 10.0 mi SSE 6.9 mph - N/A   Clear
11:35 AM 44.6 °F 40.7 °F 24.8 °F 46% 30.23 in 10.0 mi SSE 6.9 mph - N/A   Clear
11:55 AM 44.6 °F 39.7 °F 26.6 °F 49% 30.23 in 10.0 mi SE 9.2 mph - N/A   Clear
12:15 PM 46.4 °F 41.9 °F 24.8 °F 43% 30.22 in 10.0 mi SE 9.2 mph - N/A   Clear
12:35 PM 46.4 °F 42.9 °F 26.6 °F 46% 30.22 in 10.0 mi SE 6.9 mph - N/A   Clear
12:55 PM 46.4 °F 41.5 °F 24.8 °F 43% 30.20 in 10.0 mi SSE 10.4 mph - N/A   Clear
1:15 PM 48.2 °F - 24.8 °F 40% 30.20 in 10.0 mi SSE 11.5 mph - N/A   Clear
1:35 PM 48.2 °F - 26.6 °F 43% 30.21 in 10.0 mi South 9.2 mph - N/A   Clear
1:55 PM 48.2 °F - 26.6 °F 43% 30.21 in 10.0 mi SSE 9.2 mph - N/A   Clear
2:15 PM 48.2 °F - 26.6 °F 43% 30.22 in 10.0 mi SE 9.2 mph - N/A   Clear
2:35 PM 50.0 °F - 26.6 °F 40% 30.21 in 10.0 mi SSE 9.2 mph - N/A   Clear
2:55 PM 50.0 °F - 26.6 °F 40% 30.20 in 10.0 mi South 8.1 mph - N/A   Clear
3:15 PM 48.2 °F - 26.6 °F 43% 30.20 in 10.0 mi South 5.8 mph - N/A   Clear
3:35 PM 48.2 °F - 26.6 °F 43% 30.21 in 10.0 mi SSE 8.1 mph - N/A   Clear
3:55 PM 48.2 °F - 26.6 °F 43% 30.22 in 10.0 mi SSE 6.9 mph - N/A   Clear
4:15 PM 46.4 °F 42.9 °F 26.6 °F 46% 30.21 in 10.0 mi SSE 6.9 mph - N/A   Clear
4:35 PM 46.4 °F 43.5 °F 26.6 °F 46% 30.22 in 10.0 mi SSE 5.8 mph - N/A   Clear
4:55 PM 46.4 °F 42.9 °F 26.6 °F 46% 30.23 in 10.0 mi SSE 6.9 mph - N/A   Clear
5:15 PM 44.6 °F - 26.6 °F 49% 30.23 in 10.0 mi Calm Calm - N/A   Clear
5:35 PM 39.2 °F - 28.4 °F 65% 30.24 in 10.0 mi Calm Calm - N/A   Clear
5:55 PM 39.2 °F - 26.6 °F 61% 30.24 in 10.0 mi Calm Calm - N/A   Clear
6:15 PM 37.4 °F - 26.6 °F 65% 30.25 in 10.0 mi Calm Calm - N/A   Clear
6:35 PM 35.6 °F - 26.6 °F 70% 30.25 in 10.0 mi Calm Calm - N/A   Clear
6:55 PM 33.8 °F - 24.8 °F 70% 30.26 in 10.0 mi Calm Calm - N/A   Clear
7:15 PM 33.8 °F - 26.6 °F 75% 30.26 in 10.0 mi Calm Calm - N/A   Clear
7:35 PM 32.0 °F - 24.8 °F 75% 30.27 in 10.0 mi Calm Calm - N/A   Clear
7:55 PM 33.8 °F - 26.6 °F 75% 30.27 in 10.0 mi Calm Calm - N/A   Clear
8:15 PM 32.0 °F - 26.6 °F 80% 30.28 in 10.0 mi Calm Calm - N/A   Clear
8:35 PM 33.8 °F 30.8 °F 26.6 °F 75% 30.28 in 10.0 mi East 3.5 mph - N/A   Clear
8:55 PM 33.8 °F - 26.6 °F 75% 30.28 in 10.0 mi Calm Calm - N/A   Clear
9:15 PM 32.0 °F - 26.6 °F 80% 30.28 in 10.0 mi Calm Calm - N/A   Clear
9:35 PM 30.2 °F - 24.8 °F 80% 30.29 in 10.0 mi Calm Calm - N/A   Clear
9:55 PM 32.0 °F - 26.6 °F 80% 30.29 in 10.0 mi Calm Calm - N/A   Clear
10:15 PM 30.2 °F - 26.6 °F 86% 30.29 in 10.0 mi Calm Calm - N/A   Clear
10:35 PM 30.2 °F - 24.8 °F 80% 30.29 in 10.0 mi Calm Calm - N/A   Clear
10:55 PM 30.2 °F - 26.6 °F 86% 30.29 in 8.0 mi Calm Calm - N/A   Clear
11:15 PM 30.2 °F - 24.8 °F 80% 30.29 in 10.0 mi Calm Calm - N/A   Clear
11:35 PM 30.2 °F - 26.6 °F 86% 30.30 in 10.0 mi Calm Calm - N/A   Clear
11:55 PM 30.2 °F - 24.8 °F 80% 30.31 in 10.0 mi Calm Calm - N/A   Clear